星链-11552 (STARLINK-11552)

导读

STARLINK-11552是美国SpaceX星链计划中的低轨通信卫星,于2025年2月8日发射入轨。星链计划旨在构建全球覆盖的高速卫星互联网,该卫星运行于近地轨道,依托激光通信技术与先进推进系统,可为全球尤其是偏远地区提供稳定宽带服务,它的成功发射进一步扩充了星链星座规模,提升了系统整体覆盖能力与服务质量。

基本信息
目录编号:
62907
目录名称:
STARLINK-11552
国际标识:
2025-027A
轨道中心:
EARTH
卫星名称:
星链-11552
卫星全名:
星链-11552 (STARLINK-11552)
卫星状态:
在轨 (已飞行574 天)
发射日期:
2025-02-08 UTC
国别 :
美国 (US)
星等 :
--
轨道信息
数据来源 国际轨道数据
星历时间: 2026-09-05T00:39:12+0800
14小时前
查看轨道信息
半长轴: 6734.544km
偏心率: 0.0001994
轨道倾角: 42.999°
近地点辐角 276.204°
升交点赤经 348.797°
平近点角 83.860°
近地点: 355.064km
远地点: 357.75km
周期: 91.669分钟
每日圈数: 15.708709
详细信息
固有亮度:
5
最大亮度:
2.5
卫星平台:
Starlink V1.0
覆盖范围:
全球
运营商:
太空探索技术公司
运营商所在国:
美国
制造商(研发单位):
太空探索技术公司
制造商所在国:
美国
使用方式:
暂无
卫星简介
Starlink 计划是 SpaceX 推出的全球卫星互联网项目,通过发射低轨道卫星,为全球尤其是偏远地区提供高速、低延迟的互联网服务。自 2019 年起,Starlink 已部署数千颗卫星,旨在缩小全球数字鸿沟,推动互联网普及。该项目还为军事、航空等行业提供通信支持,带来广泛经济效益。
2D轨道图
3D轨道图
轨道高度分析图
轨道倾角分析图
轨道综合分析图
查看轨道综合分析图